• In Romania
  • List of Countries
  • For 7 days
  • Water Temperature
  • Satellite Maps
  • Weather Map
  • Weather Widgets
  • user-avatar
    Login

    Hourly Weather Sydney

    Today, 20 November, Monday

    Time Temperature Precipitation Wind Pressure Humidity
    00:00 +17°C° 0 mm 2 mps 767 mmHg 84%
    01:00 +17°C° 0 mm 2 mps 767 mmHg 84%
    02:00 +17°C° 0 mm 2 mps 767 mmHg 84%
    03:00 +17°C° 0 mm 2 mps 767 mmHg 83%
    04:00 +18°C° 0 mm 1 mps 767 mmHg 83%
    05:00 +18°C° 0 mm 2 mps 767 mmHg 80%
    06:00 +18°C° 0 mm 2 mps 767 mmHg 78%
    07:00 +19°C° 0 mm 3 mps 767 mmHg 76%
    08:00 +20°C° 0.1 mm 3 mps 768 mmHg 70%
    09:00 +22°C° 0.1 mm 3 mps 768 mmHg 65%
    10:00 +22°C° 0 mm 3 mps 768 mmHg 63%
    11:00 +24°C° 0 mm 3 mps 768 mmHg 60%
    12:00 +24°C° 0 mm 3 mps 767 mmHg 57%
    13:00 +25°C° 0 mm 3 mps 767 mmHg 54%
    14:00 +25°C° 0 mm 4 mps 767 mmHg 52%
    15:00 +25°C° 0 mm 4 mps 767 mmHg 51%
    16:00 +25°C° 0 mm 3 mps 766 mmHg 55%
    17:00 +22°C° 0 mm 3 mps 767 mmHg 63%
    18:00 +21°C° 0 mm 3 mps 767 mmHg 70%
    19:00 +19°C° 0 mm 3 mps 767 mmHg 78%
    20:00 +19°C° 0 mm 3 mps 767 mmHg 80%
    21:00 +19°C° 0 mm 3 mps 767 mmHg 81%
    22:00 +18°C° 0 mm 3 mps 767 mmHg 83%
    23:00 +18°C° 0 mm 2 mps 767 mmHg 83%

    Tomorrow, 21 November, Tuesday

    Time Temperature Precipitation Wind Pressure Humidity
    00:00 +18°C° 0 mm 2 mps 767 mmHg 83%
    01:00 +18°C° 0 mm 2 mps 767 mmHg 83%
    02:00 +18°C° 0 mm 2 mps 767 mmHg 81%
    03:00 +18°C° 0 mm 2 mps 767 mmHg 80%
    04:00 +18°C° 0 mm 2 mps 767 mmHg 78%
    05:00 +18°C° 0 mm 2 mps 767 mmHg 75%
    06:00 +19°C° 0 mm 2 mps 767 mmHg 72%
    07:00 +19°C° 0 mm 2 mps 767 mmHg 69%
    08:00 +20°C° 0 mm 2 mps 767 mmHg 66%
    09:00 +20°C° 0 mm 2 mps 767 mmHg 62%
    10:00 +21°C° 0 mm 2 mps 767 mmHg 59%
    11:00 +23°C° 0 mm 2 mps 766 mmHg 54%
    12:00 +25°C° 0 mm 3 mps 766 mmHg 48%
    13:00 +26°C° 0 mm 3 mps 766 mmHg 42%
    14:00 +26°C° 0 mm 3 mps 765 mmHg 43%
    15:00 +26°C° 0 mm 3 mps 765 mmHg 44%
    16:00 +26°C° 0 mm 4 mps 765 mmHg 44%
    17:00 +24°C° 0 mm 3 mps 765 mmHg 52%
    18:00 +21°C° 0 mm 3 mps 765 mmHg 60%
    19:00 +19°C° 0 mm 3 mps 765 mmHg 67%
    20:00 +18°C° 0 mm 3 mps 766 mmHg 72%
    21:00 +17°C° 0 mm 2 mps 766 mmHg 76%
    22:00 +17°C° 0 mm 2 mps 766 mmHg 81%
    23:00 +17°C° 0 mm 2 mps 766 mmHg 82%

    Day after tomorrow, 22 November, Wednesday

    Time Temperature Precipitation Wind Pressure Humidity
    00:00 +17°C° 0 mm 2 mps 765 mmHg 83%
    01:00 +16°C° 0 mm 2 mps 765 mmHg 84%
    02:00 +17°C° 0.1 mm 2 mps 764 mmHg 84%
    03:00 +17°C° 0.1 mm 2 mps 764 mmHg 83%
    04:00 +17°C° 0.1 mm 2 mps 764 mmHg 82%
    05:00 +18°C° 0.2 mm 2 mps 764 mmHg 81%
    06:00 +18°C° 0.2 mm 2 mps 764 mmHg 80%
    07:00 +19°C° 0.2 mm 2 mps 765 mmHg 78%
    08:00 +20°C° 0.2 mm 2 mps 764 mmHg 74%
    09:00 +21°C° 0.2 mm 3 mps 764 mmHg 69%
    10:00 +24°C° 0.2 mm 3 mps 764 mmHg 64%
    11:00 +24°C° 0.2 mm 3 mps 763 mmHg 61%
    12:00 +25°C° 0.2 mm 4 mps 763 mmHg 57%
    13:00 +26°C° 0.2 mm 4 mps 762 mmHg 53%
    14:00 +26°C° 0 mm 4 mps 762 mmHg 53%
    15:00 +26°C° 0 mm 4 mps 762 mmHg 52%
    16:00 +25°C° 0 mm 4 mps 761 mmHg 52%
    17:00 +23°C° 0 mm 4 mps 762 mmHg 59%
    18:00 +21°C° 0 mm 3 mps 762 mmHg 67%
    19:00 +20°C° 0 mm 3 mps 762 mmHg 75%
    20:00 +19°C° 0.4 mm 3 mps 762 mmHg 79%
    21:00 +18°C° 0.4 mm 2 mps 763 mmHg 84%
    22:00 +18°C° 0.4 mm 2 mps 763 mmHg 88%
    23:00 +17°C° 0.4 mm 2 mps 762 mmHg 90%

    23 November, Thursday

    Time Temperature Precipitation Wind Pressure Humidity
    00:00 +17°C° 0.4 mm 2 mps 762 mmHg 91%
    01:00 +17°C° 0.4 mm 2 mps 761 mmHg 93%
    02:00 +16°C° 0.1 mm 2 mps 761 mmHg 94%
    03:00 +16°C° 0.1 mm 2 mps 761 mmHg 94%
    04:00 +16°C° 0.1 mm 2 mps 761 mmHg 95%
    05:00 +19°C° 0.2 mm 1 mps 761 mmHg 87%
    06:00 +20°C° 0.2 mm 1 mps 761 mmHg 79%
    07:00 +22°C° 0.2 mm 1 mps 762 mmHg 71%
    08:00 +24°C° 0.1 mm 1 mps 761 mmHg 62%
    09:00 +26°C° 0.1 mm 2 mps 761 mmHg 53%
    10:00 +28°C° 0.1 mm 2 mps 761 mmHg 44%
    11:00 +29°C° 0 mm 3 mps 761 mmHg 41%
    12:00 +30°C° 0 mm 4 mps 760 mmHg 39%
    13:00 +30°C° 0 mm 4 mps 760 mmHg 36%
    14:00 +30°C° 0 mm 4 mps 760 mmHg 39%
    15:00 +29°C° 0 mm 5 mps 759 mmHg 42%
    16:00 +28°C° 0 mm 5 mps 759 mmHg 45%
    17:00 +26°C° 0.1 mm 5 mps 759 mmHg 53%
    18:00 +25°C° 0.1 mm 5 mps 760 mmHg 61%
    19:00 +22°C° 0.1 mm 5 mps 760 mmHg 68%
    20:00 +21°C° 0.1 mm 5 mps 760 mmHg 72%
    21:00 +21°C° 0.1 mm 5 mps 760 mmHg 76%
    22:00 +20°C° 0.1 mm 5 mps 761 mmHg 80%
    23:00 +20°C° 0 mm 4 mps 760 mmHg 83%

    24 November, Friday

    Time Temperature Precipitation Wind Pressure Humidity
    00:00 +19°C° 0 mm 4 mps 760 mmHg 85%
    01:00 +18°C° 0 mm 4 mps 760 mmHg 87%
    02:00 +18°C° 0 mm 3 mps 760 mmHg 89%
    03:00 +18°C° 0 mm 3 mps 759 mmHg 90%
    04:00 +17°C° 0 mm 3 mps 759 mmHg 91%
    05:00 +19°C° 0 mm 3 mps 760 mmHg 82%
    06:00 +21°C° 0 mm 3 mps 760 mmHg 73%
    07:00 +24°C° 0 mm 2 mps 760 mmHg 64%
    08:00 +27°C° 0 mm 3 mps 760 mmHg 53%
    09:00 +30°C° 0 mm 3 mps 760 mmHg 43%
    10:00 +34°C° 0 mm 3 mps 760 mmHg 32%
    11:00 +34°C° 0 mm 3 mps 760 mmHg 31%
    12:00 +34°C° 0 mm 4 mps 759 mmHg 31%
    13:00 +34°C° 0 mm 4 mps 759 mmHg 30%
    14:00 +33°C° 0 mm 4 mps 759 mmHg 33%
    15:00 +32°C° 0 mm 5 mps 759 mmHg 36%
    16:00 +32°C° 0 mm 5 mps 759 mmHg 39%
    17:00 +29°C° 0.1 mm 5 mps 759 mmHg 46%
    18:00 +27°C° 0.1 mm 4 mps 760 mmHg 54%
    19:00 +25°C° 0.1 mm 4 mps 760 mmHg 61%
    20:00 +23°C° 0.2 mm 4 mps 760 mmHg 66%
    21:00 +22°C° 0.2 mm 4 mps 761 mmHg 71%
    22:00 +21°C° 0.2 mm 3 mps 761 mmHg 76%
    23:00 +20°C° 0 mm 3 mps 761 mmHg 78%

    25 November, Saturday

    Time Temperature Precipitation Wind Pressure Humidity
    00:00 +20°C° 0 mm 2 mps 761 mmHg 79%
    01:00 +19°C° 0 mm 2 mps 760 mmHg 81%
    02:00 +19°C° 0 mm 2 mps 760 mmHg 81%
    03:00 +19°C° 0 mm 2 mps 760 mmHg 81%
    04:00 +20°C° 0 mm 1 mps 760 mmHg 82%
    05:00 +20°C° 0 mm 2 mps 761 mmHg 74%
    06:00 +23°C° 0 mm 2 mps 761 mmHg 67%
    07:00 +25°C° 0 mm 2 mps 762 mmHg 60%
    08:00 +28°C° 0 mm 2 mps 762 mmHg 52%
    09:00 +30°C° 0 mm 3 mps 762 mmHg 44%
    10:00 +34°C° 0 mm 3 mps 761 mmHg 36%
    11:00 +34°C° 0 mm 4 mps 761 mmHg 34%
    12:00 +35°C° 0 mm 5 mps 761 mmHg 33%
    13:00 +35°C° 0 mm 5 mps 760 mmHg 31%
    14:00 +34°C° 0 mm 6 mps 760 mmHg 35%
    15:00 +33°C° 0 mm 6 mps 760 mmHg 39%
    16:00 +32°C° 0 mm 6 mps 760 mmHg 42%
    17:00 +28°C° 0.3 mm 5 mps 761 mmHg 52%
    18:00 +26°C° 0.3 mm 5 mps 761 mmHg 61%
    19:00 +23°C° 0.3 mm 4 mps 762 mmHg 71%
    20:00 +24°C° 0.1 mm 3 mps 762 mmHg 73%
    21:00 +22°C° 0.1 mm 3 mps 763 mmHg 75%
    22:00 +22°C° 0.1 mm 3 mps 763 mmHg 77%
    23:00 +21°C° 0 mm 3 mps 763 mmHg 80%
    Show more